When you browse on this site, cookies collect data to enhance your experience and personalize the content and advertising you see.
Visit our Privacy Policy to learn more. By continuing to use the site, you agree to this use of cookies and data.
  • In Czech Republic
  • List of Countries
  • For 7 days
  • Water Temperature
  • Weather Map
  • Weather Widgets
  • user-avatar
    Login

    Hourly Weather Totonicapán

    Today, 16 September, Monday

    Time Temperature Precipitation Wind Pressure Humidity
    00:00 +11°C° 0.1 mm 1 mps 554 mmHg 92%
    01:00 +11°C° 0 mm 1 mps 553 mmHg 92%
    02:00 +10°C° 0 mm 1 mps 553 mmHg 92%
    03:00 +10°C° 0 mm 1 mps 552 mmHg 93%
    04:00 +10°C° 0 mm 1 mps 553 mmHg 93%
    05:00 +10°C° 0 mm 1 mps 553 mmHg 93%
    06:00 +10°C° 0 mm 1 mps 553 mmHg 93%
    07:00 +12°C° 0 mm 1 mps 554 mmHg 87%
    08:00 +14°C° 0 mm 1 mps 556 mmHg 81%
    09:00 +16°C° 0 mm 1 mps 557 mmHg 75%
    10:00 +17°C° 0.2 mm 2 mps 558 mmHg 69%
    11:00 +19°C° 0.2 mm 3 mps 558 mmHg 62%
    12:00 +20°C° 0.2 mm 3 mps 558 mmHg 55%
    13:00 +19°C° 0.2 mm 3 mps 557 mmHg 57%
    14:00 +19°C° 0.2 mm 3 mps 557 mmHg 60%
    15:00 +18°C° 0.2 mm 3 mps 556 mmHg 62%
    16:00 +16°C° 0.3 mm 2 mps 555 mmHg 72%
    17:00 +15°C° 0.3 mm 2 mps 554 mmHg 82%
    18:00 +13°C° 0.3 mm 1 mps 553 mmHg 92%
    19:00 +12°C° 0.2 mm 1 mps 553 mmHg 91%
    20:00 +11°C° 0.2 mm 1 mps 553 mmHg 90%
    21:00 +11°C° 0.2 mm 1 mps 553 mmHg 88%
    22:00 +11°C° 0.1 mm 1 mps 554 mmHg 88%
    23:00 +11°C° 0.1 mm 1 mps 554 mmHg 88%

    Tomorrow, 17 September, Tuesday

    Time Temperature Precipitation Wind Pressure Humidity
    00:00 +11°C° 0.1 mm 1 mps 554 mmHg 88%
    01:00 +11°C° 0.1 mm 1 mps 553 mmHg 89%
    02:00 +11°C° 0.1 mm 1 mps 553 mmHg 90%
    03:00 +9°C° 0.1 mm 0 mps 553 mmHg 91%
    04:00 +10°C° 0 mm 1 mps 553 mmHg 90%
    05:00 +10°C° 0 mm 1 mps 553 mmHg 89%
    06:00 +10°C° 0 mm 1 mps 553 mmHg 88%
    07:00 +12°C° 0.1 mm 1 mps 554 mmHg 83%
    08:00 +14°C° 0.1 mm 1 mps 556 mmHg 77%
    09:00 +16°C° 0.1 mm 1 mps 557 mmHg 72%
    10:00 +17°C° 0.6 mm 2 mps 557 mmHg 71%
    11:00 +17°C° 0.6 mm 2 mps 557 mmHg 71%
    12:00 +18°C° 0.6 mm 3 mps 557 mmHg 71%
    13:00 +17°C° 0.9 mm 3 mps 556 mmHg 73%
    14:00 +16°C° 0.9 mm 2 mps 556 mmHg 75%
    15:00 +16°C° 0.9 mm 2 mps 555 mmHg 78%
    16:00 +15°C° 0.4 mm 2 mps 555 mmHg 83%
    17:00 +14°C° 0.4 mm 1 mps 554 mmHg 89%
    18:00 +12°C° 0.4 mm 1 mps 554 mmHg 94%
    19:00 +12°C° 0.7 mm 1 mps 554 mmHg 94%
    20:00 +12°C° 0.7 mm 1 mps 554 mmHg 94%
    21:00 +12°C° 0.7 mm 1 mps 555 mmHg 94%
    22:00 +11°C° 0.3 mm 1 mps 555 mmHg 94%
    23:00 +11°C° 0.3 mm 1 mps 554 mmHg 94%

    Day after tomorrow, 18 September, Wednesday

    Time Temperature Precipitation Wind Pressure Humidity
    00:00 +11°C° 0.3 mm 1 mps 554 mmHg 94%
    01:00 +11°C° 0 mm 1 mps 554 mmHg 93%
    02:00 +11°C° 0 mm 1 mps 553 mmHg 91%
    03:00 +11°C° 0 mm 1 mps 553 mmHg 90%
    04:00 +10°C° 0 mm 1 mps 553 mmHg 88%
    05:00 +10°C° 0 mm 1 mps 553 mmHg 87%
    06:00 +10°C° 0 mm 1 mps 553 mmHg 86%
    07:00 +13°C° 0 mm 1 mps 555 mmHg 78%
    08:00 +15°C° 0 mm 1 mps 556 mmHg 71%
    09:00 +17°C° 0 mm 0 mps 558 mmHg 64%
    10:00 +19°C° 0.6 mm 1 mps 558 mmHg 66%
    11:00 +19°C° 0.6 mm 1 mps 558 mmHg 68%
    12:00 +19°C° 0.6 mm 2 mps 558 mmHg 71%
    13:00 +19°C° 1.8 mm 1 mps 557 mmHg 76%
    14:00 +18°C° 1.8 mm 1 mps 555 mmHg 82%
    15:00 +16°C° 1.8 mm 1 mps 554 mmHg 87%
    16:00 +15°C° 1.7 mm 1 mps 554 mmHg 90%
    17:00 +14°C° 1.7 mm 1 mps 554 mmHg 93%
    18:00 +12°C° 1.7 mm 0 mps 553 mmHg 96%
    19:00 +11°C° 0.8 mm 0 mps 554 mmHg 95%
    20:00 +11°C° 0.8 mm 0 mps 554 mmHg 94%
    21:00 +12°C° 0.8 mm 1 mps 554 mmHg 93%
    22:00 +12°C° 0.3 mm 1 mps 554 mmHg 93%
    23:00 +11°C° 0.3 mm 1 mps 554 mmHg 92%

    19 September, Thursday

    Time Temperature Precipitation Wind Pressure Humidity
    00:00 +11°C° 0.3 mm 1 mps 554 mmHg 92%
    01:00 +11°C° 0 mm 1 mps 553 mmHg 91%
    02:00 +10°C° 0 mm 1 mps 553 mmHg 91%
    03:00 +10°C° 0 mm 1 mps 552 mmHg 91%
    04:00 +10°C° 0 mm 1 mps 552 mmHg 91%
    05:00 +10°C° 0 mm 1 mps 552 mmHg 90%
    06:00 +10°C° 0 mm 1 mps 552 mmHg 90%
    07:00 +12°C° 0 mm 1 mps 554 mmHg 82%
    08:00 +14°C° 0 mm 1 mps 555 mmHg 73%
    09:00 +18°C° 0 mm 1 mps 557 mmHg 65%
    10:00 +19°C° 0 mm 1 mps 557 mmHg 59%
    11:00 +19°C° 0 mm 2 mps 557 mmHg 54%
    12:00 +20°C° 0 mm 2 mps 558 mmHg 48%
    13:00 +20°C° 0.4 mm 2 mps 557 mmHg 53%
    14:00 +19°C° 0.4 mm 2 mps 556 mmHg 58%
    15:00 +18°C° 0.4 mm 3 mps 555 mmHg 62%
    16:00 +16°C° 0.4 mm 2 mps 554 mmHg 71%
    17:00 +15°C° 0.4 mm 1 mps 553 mmHg 79%
    18:00 +13°C° 0.4 mm 1 mps 553 mmHg 87%
    19:00 +12°C° 0.1 mm 1 mps 552 mmHg 88%
    20:00 +11°C° 0.1 mm 1 mps 552 mmHg 89%
    21:00 +10°C° 0.1 mm 1 mps 552 mmHg 90%
    22:00 +10°C° 0 mm 1 mps 552 mmHg 89%
    23:00 +9°C° 0 mm 1 mps 552 mmHg 88%

    20 September, Friday

    Time Temperature Precipitation Wind Pressure Humidity
    00:00 +9°C° 0 mm 1 mps 552 mmHg 87%
    01:00 +9°C° 0 mm 1 mps 551 mmHg 83%
    02:00 +8°C° 0 mm 1 mps 551 mmHg 78%
    03:00 +8°C° 0 mm 1 mps 550 mmHg 74%
    04:00 +8°C° 0 mm 1 mps 550 mmHg 70%
    05:00 +8°C° 0 mm 1 mps 551 mmHg 66%
    06:00 +8°C° 0 mm 1 mps 551 mmHg 63%
    07:00 +11°C° 0 mm 1 mps 553 mmHg 58%
    08:00 +14°C° 0 mm 1 mps 555 mmHg 53%
    09:00 +19°C° 0 mm 1 mps 557 mmHg 48%
    10:00 +19°C° 0 mm 1 mps 557 mmHg 47%
    11:00 +19°C° 0 mm 2 mps 557 mmHg 47%
    12:00 +20°C° 0 mm 2 mps 558 mmHg 47%
    13:00 +19°C° 0.4 mm 2 mps 557 mmHg 56%
    14:00 +18°C° 0.4 mm 2 mps 555 mmHg 64%
    15:00 +17°C° 0.4 mm 2 mps 554 mmHg 73%
    16:00 +15°C° 0.6 mm 1 mps 554 mmHg 80%
    17:00 +14°C° 0.6 mm 1 mps 553 mmHg 88%
    18:00 +11°C° 0.6 mm 0 mps 553 mmHg 95%
    19:00 +11°C° 0.3 mm 0 mps 553 mmHg 95%
    20:00 +10°C° 0.3 mm 0 mps 553 mmHg 94%
    21:00 +11°C° 0.3 mm 1 mps 553 mmHg 94%
    22:00 +10°C° 0 mm 1 mps 553 mmHg 94%
    23:00 +10°C° 0 mm 1 mps 553 mmHg 94%

    21 September, Saturday

    Time Temperature Precipitation Wind Pressure Humidity
    00:00 +10°C° 0 mm 1 mps 553 mmHg 94%
    01:00 +10°C° 0.1 mm 1 mps 552 mmHg 94%
    02:00 +10°C° 0.1 mm 1 mps 552 mmHg 94%
    03:00 +9°C° 0.1 mm 1 mps 552 mmHg 94%
    04:00 +9°C° 0 mm 1 mps 552 mmHg 94%
    05:00 +9°C° 0 mm 1 mps 552 mmHg 94%
    06:00 +9°C° 0 mm 1 mps 552 mmHg 93%
    07:00 +12°C° 0 mm 1 mps 554 mmHg 87%
    08:00 +14°C° 0 mm 1 mps 555 mmHg 81%
    09:00 +16°C° 0 mm 1 mps 557 mmHg 74%
    10:00 +18°C° 0.7 mm 1 mps 557 mmHg 75%
    11:00 +18°C° 0.7 mm 1 mps 556 mmHg 76%
    12:00 +18°C° 0.7 mm 1 mps 556 mmHg 77%
    13:00 +18°C° 2.4 mm 1 mps 555 mmHg 81%
    14:00 +16°C° 2.4 mm 1 mps 555 mmHg 85%
    15:00 +16°C° 2.4 mm 1 mps 554 mmHg 89%
    16:00 +15°C° 1.9 mm 1 mps 554 mmHg 91%
    17:00 +14°C° 1.9 mm 1 mps 553 mmHg 94%
    18:00 +13°C° 1.9 mm 1 mps 553 mmHg 96%
    19:00 +11°C° 1 mm 0 mps 553 mmHg 96%
    20:00 +11°C° 1 mm 0 mps 554 mmHg 96%
    21:00 +11°C° 1 mm 0 mps 554 mmHg 96%
    22:00 +10°C° 0.5 mm 0 mps 554 mmHg 96%
    23:00 +10°C° 0.5 mm 0 mps 554 mmHg 96%
    Show more